Location: *
(50.8512°N, 5.6907°E)
Time: 09:52:58
(UTC+00:00)

Resurs 01 Rocket - Pass Details

Date: 09 April 2020
Orbit: 635 x 643 km, 98.0° (Epoch: 25 May)

Event Time Altitude Azimuth Distance (km) Brightness Sun altitude
Exits shadow 20:55:17 12° 211° (SSW) 1,862 3.9 -21.4°
Maximum altitude 20:58:33 27° 266° (W) 1,229 3.4 -21.8°
Drops below altitude 10° 21:02:21 10° 325° (NW) 2,038 5.3 -22.2°
Sets 21:04:51 0° 337° (NNW) 2,954 6.3 -22.4°
